Regional Weather Roundup
Issued by NWS Little Rock, AR

Home | Current Version | Previous Version | Graphics & Text | Print | Product List | Glossary On
Versions: 1 2 3 4 5 6 7 8 9 10 11 12 13 14 15 16 17 18 19 20 21 22 23 24 25 26 27 28 29 30 31 32
000
ASUS44 KLZK 240612
RWRLZK

WEATHER ROUNDUP FOR ARKANSAS
NATIONAL WEATHER SERVICE LITTLE ROCK AR
100 AM CDT MON JUL 24 2017

NOTE: "FAIR" INDICATES FEW OR NO CLOUDS BELOW 12,000 FEET WITH NO
SIGNIFICANT WEATHER AND/OR OBSTRUCTIONS TO VISIBILITY.

ARZ001-003-010-029-240700-
NORTHWEST ARKANSAS

CITY           SKY/WX    TMP DP  RH WIND       PRES   REMARKS
FAYETTEVILLE   PTCLDY    70  70 100 CALM      29.98S
6HR MIN TEMP:  70; 6HR MAX TEMP:  73;

FORT SMITH     CLOUDY    76  75  97 NE5       29.93R
6HR MIN TEMP:  76; 6HR MAX TEMP:  80; 6HR PCP: TRACE;

HARRISON       CLOUDY    74  69  85 W5        29.97F
6HR MIN TEMP:  73; 6HR MAX TEMP:  81;

BENTONVILLE    MOCLDY    72  66  83 CALM      29.99R
6HR MIN TEMP:  72; 6HR MAX TEMP:  79;

ROGERS         PTCLDY    72  69  90 CALM      29.99R
6HR MIN TEMP:  72; 6HR MAX TEMP:  79;

SILOAM SPGS    PTCLDY    70  66  88 CALM      29.97S
6HR MIN TEMP:  70; 6HR MAX TEMP:  75;

$$

ARZ004-005-016-240700-
NORTH CENTRAL ARKANSAS

CITY           SKY/WX    TMP DP  RH WIND       PRES   REMARKS
BATESVILLE     CLOUDY    79  70  73 SW3       29.91F
6HR MIN TEMP:  79; 6HR MAX TEMP:  91;

FLIPPIN        CLOUDY    75  64  69 CALM      29.91S
6HR MIN TEMP:  75; 6HR MAX TEMP:  88;

MTN HOME       CLOUDY    74  69  85 CALM      29.93S
6HR MIN TEMP:  74; 6HR MAX TEMP:  84;

$$

ARZ040-041-240700-
WEST CENTRAL ARKANSAS

CITY           SKY/WX    TMP DP  RH WIND       PRES   REMARKS
MENA           MOCLDY    73  72  94 CALM      29.94S
MOUNT IDA      MOCLDY    73  71  93 CALM      29.91S
6HR MIN TEMP:  71; 6HR MAX TEMP:  73; 6HR PCP:  0.16;

$$

ARZ009-017-025-026-028-240700-
NORTHEAST ARKANSAS

CITY           SKY/WX    TMP DP  RH WIND       PRES   REMARKS
CORNING        FAIR      77  77 100 S5        29.91S
JONESBORO      MOCLDY    77  73  87 W8        29.89F
6HR MIN TEMP:  75; 6HR MAX TEMP:  83;

WALNUT RIDGE   CLOUDY    75  70  83 S6        29.91R
6HR MIN TEMP:  75; 6HR MAX TEMP:  91;

BLYTHEVILLE    CLOUDY    75  74  96 W3        29.89S
6HR MIN TEMP:  75; 6HR MAX TEMP:  80;

$$

ARZ022-023-033-042-044-240700-
CENTRAL ARKANSAS

CITY           SKY/WX    TMP DP  RH WIND       PRES   REMARKS
LITTLE ROCK    CLOUDY    71  71 100 VRB3      29.92F
6HR MIN TEMP:  71; 6HR MAX TEMP:  89; 6HR PCP:  0.86;

N LITTLE ROCK    N/A     73  70  93 S5        29.90F
6HR MIN TEMP:  72; 6HR MAX TEMP:  85;

JACKSONVILLE   CLOUDY    73  71  93 CALM      29.91F
6HR MIN TEMP:  72; 6HR MAX TEMP:  85; 6HR PCP:  0.56;

CONWAY           N/A     77  72  83 E6        29.91F
SEARCY         CLOUDY    72  71  97 SW6       29.94F
6HR MIN TEMP:  72; 6HR MAX TEMP:  85;

HOT SPRINGS    CLOUDY    75  73  93 E14       29.94R
6HR MIN TEMP:  73; 6HR MAX TEMP:  83; 6HR PCP:  0.34;

RUSSELLVILLE   CLOUDY    74  74 100 CALM      29.92F
6HR MIN TEMP:  74; 6HR MAX TEMP:  80; 6HR PCP:  0.01;

CLINTON        FAIR      75  73  94 CALM      29.93S
$$

ARZ036-240700-
EAST ARKANSAS

CITY           SKY/WX    TMP DP  RH WIND       PRES   REMARKS
WEST MEMPHIS   CLOUDY    74  74 100 W5        29.89R
6HR MIN TEMP:  74; 6HR MAX TEMP:  80; 6HR PCP:  0.09;

$$

ARZ050-053-066-070-073-240700-
SOUTHWEST ARKANSAS

CITY           SKY/WX    TMP DP  RH WIND       PRES   REMARKS
ARKADELPHIA    FAIR      75  72  90 VRB5      29.93R
6HR MIN TEMP:  74; 6HR MAX TEMP:  86;

CAMDEN         CLOUDY    75  72  88 N3        29.91R
TEXARKANA      CLOUDY    73  73 100 SE6       29.90R
6HR MIN TEMP:  73; 6HR MAX TEMP:  89; 6HR PCP:  0.95;

EL DORADO      CLOUDY    74  72  93 CALM      29.92R
6HR MIN TEMP:  74; 6HR MAX TEMP:  84;

DE QUEEN       CLOUDY    73  73 100 SE5G17    29.90R
6HR MIN TEMP:  72; 6HR MAX TEMP:  93; 6HR PCP:  0.01;

$$

ARZ056-057-069-240700-
SOUTHEAST ARKANSAS

CITY           SKY/WX    TMP DP  RH WIND       PRES   REMARKS
PINE BLUFF     CLOUDY    73  72  96 W9        29.89F
6HR MIN TEMP:  73; 6HR MAX TEMP:  84; 6HR PCP:  0.47;

STUTTGART      CLOUDY    73  61  64 CALM      29.89F THUNDER
6HR MIN TEMP:  72; 6HR MAX TEMP:  91; 6HR PCP:  1.51;

MONTICELLO     CLOUDY    76  74  93 N3        29.92S
6HR MIN TEMP:  76; 6HR MAX TEMP:  84;


$$






USA.gov is the U.S. government's official web portal to all federal, state and local government web resources and services.